| time (UTC) | temp C | wind direction | speed KPH | gust KPH | rain 1hr cm | rain 24hr cm | rain mn cm | humidity % | barometer mb |
| 20260504011602 | 15 | 211 | 0.0 | 4.8 | 0.00 | 0.00 | 0.00 | 58 | 1001.7 |
| 20260504010024 | 16 | 228 | 0.0 | 4.8 | 0.00 | 0.00 | 0.00 | 56 | 1001.9 |
| 20260504004615 | 17 | 240 | 3.2 | 6.4 | 0.00 | 0.00 | 0.00 | 54 | 1001.8 |
| 20260504003054 | 17 | 232 | 3.2 | 11.3 | 0.00 | 0.00 | 0.00 | 52 | 1001.7 |
| 20260504001518 | 18 | 244 | 6.4 | 14.5 | 0.00 | 0.00 | 0.00 | 51 | 1001.7 |
| 20260504000119 | 18 | 232 | 6.4 | 14.5 | 0.00 | 0.00 | 0.00 | 50 | 1001.7 |
| 20260503234612 | 18 | 247 | 9.7 | 16.1 | 0.00 | 0.00 | 0.00 | 49 | 1001.5 |
| 20260503233039 | 18 | 248 | 11.3 | 22.5 | 0.00 | 0.00 | 0.00 | 48 | 1001.6 |
| 20260503231616 | 18 | 259 | 14.5 | 24.1 | 0.00 | 0.00 | 0.00 | 46 | 1001.7 |
| 20260503230101 | 19 | 257 | 11.3 | 29.0 | 0.00 | 0.00 | 0.00 | 46 | 1001.9 |
| 20260503224508 | 19 | 249 | 11.3 | 25.7 | 0.00 | 0.00 | 0.00 | 47 | 1001.9 |
| 20260503223109 | 19 | 232 | 11.3 | 24.1 | 0.00 | 0.00 | 0.00 | 47 | 1002.0 |
| 20260503221557 | 19 | 223 | 11.3 | 30.6 | 0.00 | 0.00 | 0.00 | 46 | 1002.0 |
| 20260503220015 | 19 | 243 | 14.5 | 29.0 | 0.00 | 0.00 | 0.00 | 45 | 1002.1 |
| 20260503214602 | 18 | 221 | 16.1 | 32.2 | 0.00 | 0.00 | 0.00 | 47 | 1002.1 |
| 20260503213044 | 18 | 250 | 16.1 | 38.6 | 0.00 | 0.00 | 0.00 | 46 | 1002.2 |
| 20260503211503 | 18 | 252 | 16.1 | 27.4 | 0.00 | 0.00 | 0.00 | 45 | 1002.3 |
| 20260503210105 | 18 | 236 | 14.5 | 38.6 | 0.00 | 0.00 | 0.00 | 48 | 1002.5 |
| 20260503204515 | 18 | 213 | 14.5 | 32.2 | 0.00 | 0.00 | 0.00 | 46 | 1002.6 |
| 20260503203003 | 18 | 229 | 14.5 | 38.6 | 0.00 | 0.00 | 0.00 | 50 | 1003.0 |
| 20260503201601 | 18 | 234 | 17.7 | 33.8 | 0.00 | 0.00 | 0.00 | 52 | 1003.2 |
| 20260503200025 | 17 | 227 | 22.5 | 37.0 | 0.00 | 0.00 | 0.00 | 49 | 1003.6 |
| 20260503194618 | 17 | 194 | 19.3 | 41.8 | 0.00 | 0.00 | 0.00 | 51 | 1003.7 |
| 20260503193058 | 17 | 231 | 20.9 | 40.2 | 0.00 | 0.00 | 0.00 | 49 | 1004.0 |
| 20260503191541 | 17 | 227 | 22.5 | 35.4 | 0.00 | 0.00 | 0.00 | 47 | 1004.0 |
| 20260503190123 | 17 | 223 | 20.9 | 38.6 | 0.00 | 0.00 | 0.00 | 46 | 1004.1 |
| 20260503184552 | 17 | 290 | 19.3 | 38.6 | 0.00 | 0.00 | 0.00 | 47 | 1004.2 |
| 20260503183036 | 17 | 234 | 22.5 | 37.0 | 0.00 | 0.00 | 0.00 | 47 | 1004.2 |
| 20260503181621 | 16 | 226 | 19.3 | 48.3 | 0.00 | 0.00 | 0.00 | 48 | 1004.5 |
| 20260503180109 | 16 | 216 | 11.3 | 33.8 | 0.00 | 0.00 | 0.00 | 56 | 1004.9 |
| 20260503174518 | 16 | 208 | 19.3 | 33.8 | 0.00 | 0.00 | 0.00 | 55 | 1005.2 |
| 20260503173003 | 16 | 200 | 17.7 | 38.6 | 0.00 | 0.00 | 0.00 | 55 | 1005.6 |
| 20260503171602 | 15 | 179 | 19.3 | 41.8 | 0.00 | 0.00 | 0.00 | 55 | 1005.9 |
| 20260503160123 | 11 | 184 | 11.3 | 22.5 | 0.00 | 0.00 | 0.00 | 73 | 1007.2 |
| 20260503130120 | 11 | 246 | 14.5 | 27.4 | 0.00 | 0.00 | 0.00 | 59 | 1008.6 |
| 20260503100113 | 8 | 224 | 9.7 | 17.7 | 0.00 | 0.00 | 0.00 | 57 | 1009.6 |
| 20260503081600 | 8 | 234 | 6.4 | 16.1 | 0.00 | 0.00 | 0.00 | 58 | 1010.2 |
| 20260503071555 | 8 | 236 | 4.8 | 9.7 | 0.00 | 0.00 | 0.00 | 60 | 1010.8 |
| 20260503060137 | 7 | 221 | 3.2 | 6.4 | 0.00 | 0.00 | 0.00 | 63 | 1011.3 |
| 20260503054553 | 7 | 205 | 1.6 | 4.8 | 0.00 | 0.00 | 0.00 | 62 | 1011.4 |
| 20260503053006 | 7 | 202 | 3.2 | 6.4 | 0.00 | 0.00 | 0.00 | 62 | 1011.6 |
| 20260503051608 | 7 | 227 | 1.6 | 6.4 | 0.00 | 0.00 | 0.00 | 61 | 1011.7 |
| 20260503050038 | 7 | 221 | 3.2 | 8.0 | 0.00 | 0.00 | 0.00 | 60 | 1011.9 |
| 20260503044607 | 7 | 240 | 3.2 | 6.4 | 0.00 | 0.00 | 0.00 | 61 | 1011.8 |
| 20260503043050 | 7 | 252 | 1.6 | 6.4 | 0.00 | 0.00 | 0.00 | 61 | 1011.9 |
| 20260503041514 | 7 | 244 | 1.6 | 6.4 | 0.00 | 0.00 | 0.00 | 61 | 1012.0 |
| 20260503040121 | 6 | 263 | 1.6 | 4.8 | 0.00 | 0.00 | 0.00 | 65 | 1012.1 |
| 20260503034549 | 5 | 279 | 0.0 | 1.6 | 0.00 | 0.00 | 0.00 | 72 | 1012.3 |
| 20260503033036 | 5 | 238 | 0.0 | 0.0 | 0.00 | 0.00 | 0.00 | 75 | 1012.4 |
| 20260503031619 | 4 | 238 | 0.0 | 0.0 | 0.00 | 0.00 | 0.00 | 77 | 1012.4 |
| 20260503030101 | 5 | 238 | 0.0 | 0.0 | 0.00 | 0.00 | 0.00 | 74 | 1012.7 |
| 20260503024517 | 5 | 238 | 0.0 | 0.0 | 0.00 | 0.00 | 0.00 | 73 | 1012.6 |
| 20260503023002 | 6 | 238 | 0.0 | 0.0 | 0.00 | 0.00 | 0.00 | 70 | 1012.7 |
| 20260503021605 | 7 | 238 | 0.0 | 0.0 | 0.00 | 0.00 | 0.00 | 66 | 1012.7 |
| 20260503020025 | 8 | 238 | 0.0 | 0.0 | 0.00 | 0.00 | 0.00 | 60 | 1012.6 |
| 20260503014618 | 9 | 238 | 0.0 | 3.2 | 0.00 | 0.00 | 0.00 | 54 | 1012.5 |
| 20260503013058 | 10 | 233 | 0.0 | 4.8 | 0.00 | 0.00 | 0.00 | 52 | 1012.4 |